Regional Weather Roundup
Issued by NWS

Home | Current Version | Previous Version | Text Only | Print | Product List | Glossary Off
Versions: 1 2 3 4 5 6 7 8 9 10 11 12 13 14 15 16 17 18 19 20 21 22 23 24 25 26 27 28 29 30 31 32 33 34 35 36 37 38 39 40 41 42 43 44 45 46 47 48 49 50

666
ASUS43 KLSX 290510
RWRMO

WEATHER SUMMARY FOR MISSOURI
NATIONAL WEATHER SERVICE SPRINGFIELD MO
1200 AM CDT MON MAY 29 2017

NOTE: "FAIR" INDICATES FEW OR NO CLOUDS BELOW 12,000 FEET WITH NO
       SIGNIFICANT WEATHER AND/OR OBSTRUCTIONS TO VISIBILITY.
       CURRENT SKY AND/OR WEATHER CONDITIONS ARE NOT AVAILABLE FOR
       CHILLICOTHE AND FARMINGTON.

MOZ001>031-035>038-043-044-053-054-290600-
...NORTHERN AND WESTERN MISSOURI...

CITY           SKY/WX    TMP DP  RH WIND       PRES   REMARKS
KANSAS CTY INT CLEAR     65  48  54 N7        29.92S
KANSAS C DTWN  CLEAR     66  55  67 CALM      29.91S
LEE`S SUMMIT   CLEAR     65  52  62 W3        29.93R
ST JOSEPH      CLEAR     59  52  77 NW3       29.92R
CHILLICOTHE      N/A     65  48  54 CALM      29.91R
KIRKSVILLE     CLEAR     58  51  78 W6        29.89R

$$
MOZ066>068-077>081-088>096-101>105-290600-
...SOUTHWEST MISSOURI...

CITY           SKY/WX    TMP DP  RH WIND       PRES   REMARKS
SPRINGFIELD    CLEAR     61  56  83 SW7       29.98R
JOPLIN         CLEAR     63  56  78 S6        30.00R
BRANSON        CLOUDY    63  55  77 CALM      30.00S

$$
MOZ032>034-039>042-045>050-055>058-069>072-290600-
...CENTRAL MISSOURI...

CITY           SKY/WX    TMP DP  RH WIND       PRES   REMARKS
COLUMBIA       MOCLDY    63  56  78 SW6       29.91S
JEFFERSON CITY PTCLDY    65  58  78 CALM      29.91F
ROLLA          CLEAR     59  56  89 SW9       29.93S
SEDALIA        CLEAR     64  57  78 SW8       29.93S
WHITEMAN AFB   CLEAR     60  58  91 SW8       29.91R
WARRENSBURG    CLEAR     59  54  82 SW5       29.91R
OSAGE BEACH    CLEAR     58  57  97 CALM      29.96R

$$
MOZ051-052-059>065-290600-
...EAST CENTRAL MISSOURI...

CITY           SKY/WX    TMP DP  RH WIND       PRES   REMARKS
ST LOUIS INTL  CLEAR     70  56  61 SW8       29.89F
SPIRIT OF STL  CLEAR     63  58  83 W7        29.89S
ST CHARLES     CLEAR     61  60  97 SE3       29.88S

$$
MOZ072>076-082>087-097>100-106>115-290600-
...SOUTH CENTRAL AND SOUTHEAST MISSOURI...

CITY           SKY/WX    TMP DP  RH WIND       PRES   REMARKS
CAPE GIRARDEAU CLOUDY    62  59  90 CALM      29.91S
FARMINGTON     CLEAR     58  57  97 CALM      29.94S
POPLAR BLUFF   CLOUDY    65  63  93 CALM      29.93
WEST PLAINS    CLOUDY    59  55  87 CALM      29.98S

$$




USA.gov is the U.S. government's official web portal to all federal, state and local government web resources and services.